Weather in Hrun

Ukraine / Sumi District     50°14′16″N   34°36′08″E
temp.,
°C
wind,
m/s
gust,
m/s
humid.,
%
clouds,
%
prec.,
mm/h
press.,
hPa
HPBL,
m
1 august, sun
sun100:00+21e11560 0.0 101111
03:00+21se22580 0.0 101211
06:00+20se35610 0.0 101178
09:00+27s354651 0.0 1012441
12:00+32ssw453257 0.0 10112828
15:00+32sw3531100 0.0 10101781
18:00+31wnw343342 0.0 1010610
21:00+27ese224111 0.0 101032
2 august, mon
mon200:00+24s411490 0.0 1010169
03:00+24ssw5135018 0.0 1010266
06:00+22ssw376312 0.0 1010131
09:00+28s5849100 0.0 1010535
12:00+33ssw78356 0.0 10082055
15:00+35sw8927100 0.0 10073634
18:00+20wsw121990100 4.7 1010640
21:00+21sse4578100 10.2 100763
3 august, tue
tue300:00+19wsw41289100 1.1 1009434
03:00+18w49964 1.1 1010226
06:00+18wnw489851 0.0 1011357
09:00+20nw45759 0.0 1012637
12:00+24nw5552100 0.0 10131429
15:00+26nnw4542100 0.0 10122304
18:00+24n1250100 0.0 101333
21:00+22nnw494917 0.0 1014314
4 august, wed
wed400:00+18nnw33654 0.0 101638
03:00+18n2364100 0.0 101764
06:00+18nw2360100 0.0 101780
09:00+20nw2455100 0.0 1018299
12:00+25wnw343526 0.0 10182159
15:00+27wnw3430100 0.0 10172614
18:00+26nw233691 0.0 10171091
21:00+20wnw115041 0.0 101811
5 august, thu
thu500:00+18w115761 0.0 101811
03:00+17se225621 0.0 101817
06:00+17se2258100 0.0 101836
09:00+20se245091 0.0 1018126
12:00+24se2443100 0.0 1017373
15:00+28ssw144097 0.0 1015723
18:00+24nw1152100 0.1 101511
21:00+21e34555 0.1 101448